Time,TemperatureF,DewpointF,PressureIn,WindDirection,WindDirectionDegrees,WindSpeedMPH,WindSpeedGustMPH,Humidity,HourlyPrecipIn,Conditions,Clouds,dailyrainin,SoftwareType,DateUTC
2013-12-07 00:02:00,10.7,-0.8,30.74,NE,40,12.0,16.0,59,0.00,,,0.00,Wunderground v.1.15,2013-12-07 06:02:00,
2013-12-07 00:08:00,10.6,-0.9,30.74,NE,48,12.0,16.0,59,0.00,,,0.00,Wunderground v.1.15,2013-12-07 06:08:00,
2013-12-07 00:14:00,10.5,-1.4,30.74,NE,36,12.0,18.0,58,0.00,,,0.00,Wunderground v.1.15,2013-12-07 06:14:00,
2013-12-07 00:19:00,10.4,-1.5,30.74,NE,36,13.0,18.0,58,0.00,,,0.00,Wunderground v.1.15,2013-12-07 06:19:00,
2013-12-07 00:25:00,10.3,-1.6,30.75,NE,38,13.0,21.0,58,0.00,,,0.00,Wunderground v.1.15,2013-12-07 06:25:00,
2013-12-07 00:31:00,10.1,-1.4,30.75,NE,39,12.0,14.0,59,0.00,,,0.00,Wunderground v.1.15,2013-12-07 06:31:00,
2013-12-07 00:36:00,10.1,-1.4,30.75,NE,36,12.0,17.0,59,0.00,,,0.00,Wunderground v.1.15,2013-12-07 06:36:00,
2013-12-07 00:42:00,10.0,-1.5,30.75,NE,36,11.0,14.0,59,0.00,,,0.00,Wunderground v.1.15,2013-12-07 06:42:00,
2013-12-07 00:48:00,9.9,-1.2,30.76,NE,38,10.0,14.0,60,0.00,,,0.00,Wunderground v.1.15,2013-12-07 06:48:00,
2013-12-07 00:53:00,9.8,-1.3,30.75,NE,39,10.0,15.0,60,0.00,,,0.00,Wunderground v.1.15,2013-12-07 06:53:00,
2013-12-07 00:59:00,9.7,-1.4,30.75,NE,36,10.0,15.0,60,0.00,,,0.00,Wunderground v.1.15,2013-12-07 06:59:00,
2013-12-07 01:04:00,9.6,-1.2,30.76,NE,40,10.0,15.0,61,0.00,,,0.00,Wunderground v.1.15,2013-12-07 07:04:00,
2013-12-07 01:10:00,9.6,-1.2,30.76,NE,51,10.0,11.0,61,0.00,,,0.00,Wunderground v.1.15,2013-12-07 07:10:00,
2013-12-07 01:15:00,9.5,-1.3,30.76,NE,40,10.0,14.0,61,0.00,,,0.00,Wunderground v.1.15,2013-12-07 07:15:00,
2013-12-07 01:20:00,9.5,-1.3,30.76,NE,41,10.0,10.0,61,0.00,,,0.00,Wunderground v.1.15,2013-12-07 07:20:00,
2013-12-07 01:26:00,9.3,-1.1,30.76,NE,42,9.0,11.0,62,0.00,,,0.00,Wunderground v.1.15,2013-12-07 07:26:00,
2013-12-07 01:31:00,9.2,-1.2,30.76,NE,38,8.0,9.0,62,0.00,,,0.00,Wunderground v.1.15,2013-12-07 07:31:00,
2013-12-07 01:36:00,9.1,-1.3,30.77,NE,42,7.0,10.0,62,0.00,,,0.00,Wunderground v.1.15,2013-12-07 07:36:00,
2013-12-07 01:41:00,9.0,-1.4,30.77,NE,42,7.0,8.0,62,0.00,,,0.00,Wunderground v.1.15,2013-12-07 07:41:00,
2013-12-07 01:47:00,8.9,-1.1,30.77,NE,38,7.0,9.0,63,0.00,,,0.00,Wunderground v.1.15,2013-12-07 07:47:00,
2013-12-07 01:53:00,8.8,-1.2,30.77,NE,37,7.0,10.0,63,0.00,,,0.00,Wunderground v.1.15,2013-12-07 07:53:00,
2013-12-07 01:59:00,8.8,-1.2,30.78,NE,36,7.0,10.0,63,0.00,,,0.00,Wunderground v.1.15,2013-12-07 07:59:00,
2013-12-07 02:04:00,8.7,-1.3,30.78,NE,37,7.0,13.0,63,0.00,,,0.00,Wunderground v.1.15,2013-12-07 08:04:00,
2013-12-07 02:10:00,8.7,-1.3,30.77,NE,38,8.0,10.0,63,0.00,,,0.00,Wunderground v.1.15,2013-12-07 08:10:00,
2013-12-07 02:15:00,8.6,-1.4,30.78,NE,43,7.0,10.0,63,0.00,,,0.00,Wunderground v.1.15,2013-12-07 08:15:00,
2013-12-07 02:21:00,8.6,-1.1,30.78,NE,36,7.0,8.0,64,0.00,,,0.00,Wunderground v.1.15,2013-12-07 08:21:00,
2013-12-07 02:26:00,8.5,-1.2,30.78,NE,36,7.0,9.0,64,0.00,,,0.00,Wunderground v.1.15,2013-12-07 08:26:00,
2013-12-07 02:31:00,8.4,-1.3,30.78,NE,38,7.0,8.0,64,0.00,,,0.00,Wunderground v.1.15,2013-12-07 08:31:00,
2013-12-07 02:37:00,8.3,-1.4,30.79,NNE,30,6.0,8.0,64,0.00,,,0.00,Wunderground v.1.15,2013-12-07 08:37:00,
2013-12-07 02:43:00,8.2,-1.5,30.78,NE,35,6.0,9.0,64,0.00,,,0.00,Wunderground v.1.15,2013-12-07 08:43:00,
2013-12-07 02:48:00,8.2,-1.2,30.78,NE,38,6.0,10.0,65,0.00,,,0.00,Wunderground v.1.15,2013-12-07 08:48:00,
2013-12-07 02:54:00,8.1,-1.2,30.78,NNE,32,7.0,10.0,65,0.00,,,0.00,Wunderground v.1.15,2013-12-07 08:54:00,
2013-12-07 03:00:00,8.1,-1.2,30.78,NE,40,7.0,7.0,65,0.00,,,0.00,Wunderground v.1.15,2013-12-07 09:00:00,
2013-12-07 03:06:00,8.1,-0.9,30.79,NE,38,7.0,11.0,66,0.00,,,0.00,Wunderground v.1.15,2013-12-07 09:06:00,
2013-12-07 03:12:00,8.0,-1.0,30.79,NE,36,7.0,7.0,66,0.00,,,0.00,Wunderground v.1.15,2013-12-07 09:12:00,
2013-12-07 03:18:00,7.8,-1.2,30.79,NNE,32,6.0,8.0,66,0.00,,,0.00,Wunderground v.1.15,2013-12-07 09:18:00,
2013-12-07 03:23:00,7.8,-1.2,30.79,NE,36,6.0,8.0,66,0.00,,,0.00,Wunderground v.1.15,2013-12-07 09:23:00,
2013-12-07 03:29:00,7.8,-0.9,30.79,NNE,32,7.0,9.0,67,0.00,,,0.00,Wunderground v.1.15,2013-12-07 09:29:00,
2013-12-07 03:34:00,7.8,-0.9,30.79,NNE,28,8.0,12.0,67,0.00,,,0.00,Wunderground v.1.15,2013-12-07 09:34:00,
2013-12-07 03:40:00,7.7,-1.0,30.79,NE,41,8.0,8.0,67,0.00,,,0.00,Wunderground v.1.15,2013-12-07 09:40:00,
2013-12-07 03:45:00,7.8,-0.9,30.79,NE,34,8.0,12.0,67,0.00,,,0.00,Wunderground v.1.15,2013-12-07 09:45:00,
2013-12-07 03:50:00,7.7,-1.0,30.79,NE,41,8.0,10.0,67,0.00,,,0.00,Wunderground v.1.15,2013-12-07 09:50:00,
2013-12-07 03:55:00,7.8,-0.9,30.79,NE,37,8.0,11.0,67,0.00,,,0.00,Wunderground v.1.15,2013-12-07 09:55:00,
2013-12-07 04:01:00,7.6,-0.8,30.79,NE,35,8.0,8.0,68,0.00,,,0.00,Wunderground v.1.15,2013-12-07 10:01:00,
2013-12-07 04:07:00,7.6,-0.8,30.79,NE,37,8.0,11.0,68,0.00,,,0.00,Wunderground v.1.15,2013-12-07 10:07:00,
2013-12-07 04:12:00,7.6,-0.8,30.79,NE,40,8.0,9.0,68,0.00,,,0.00,Wunderground v.1.15,2013-12-07 10:12:00,
2013-12-07 04:17:00,7.5,-0.9,30.79,NE,38,7.0,10.0,68,0.00,,,0.00,Wunderground v.1.15,2013-12-07 10:17:00,
2013-12-07 04:23:00,7.4,-1.0,30.79,NE,41,8.0,10.0,68,0.00,,,0.00,Wunderground v.1.15,2013-12-07 10:23:00,
2013-12-07 04:28:00,7.3,-1.1,30.78,NE,38,8.0,10.0,68,0.00,,,0.00,Wunderground v.1.15,2013-12-07 10:28:00,
2013-12-07 04:34:00,7.3,-0.7,30.78,NE,34,9.0,12.0,69,0.00,,,0.00,Wunderground v.1.15,2013-12-07 10:34:00,
2013-12-07 04:40:00,7.3,-0.7,30.78,NE,36,9.0,9.0,69,0.00,,,0.00,Wunderground v.1.15,2013-12-07 10:40:00,
2013-12-07 04:46:00,7.3,-0.7,30.77,NE,37,8.0,12.0,69,0.00,,,0.00,Wunderground v.1.15,2013-12-07 10:46:00,
2013-12-07 04:51:00,7.2,-0.8,30.77,NNE,31,9.0,12.0,69,0.00,,,0.00,Wunderground v.1.15,2013-12-07 10:51:00,
2013-12-07 04:56:00,7.2,-0.8,30.77,NE,43,10.0,14.0,69,0.00,,,0.00,Wunderground v.1.15,2013-12-07 10:56:00,
2013-12-07 05:01:00,7.2,-0.8,30.77,NE,38,10.0,15.0,69,0.00,,,0.00,Wunderground v.1.15,2013-12-07 11:01:00,
2013-12-07 05:07:00,7.1,-0.9,30.77,NE,46,10.0,15.0,69,0.00,,,0.00,Wunderground v.1.15,2013-12-07 11:07:00,
2013-12-07 05:12:00,7.1,-0.6,30.77,NE,35,9.0,11.0,70,0.00,,,0.00,Wunderground v.1.15,2013-12-07 11:12:00,
2013-12-07 05:17:00,7.0,-0.7,30.77,NE,42,9.0,11.0,70,0.00,,,0.00,Wunderground v.1.15,2013-12-07 11:17:00,
2013-12-07 05:23:00,6.9,-0.8,30.78,NE,36,8.0,10.0,70,0.00,,,0.00,Wunderground v.1.15,2013-12-07 11:23:00,
2013-12-07 05:29:00,6.8,-0.9,30.78,NE,44,8.0,10.0,70,0.00,,,0.00,Wunderground v.1.15,2013-12-07 11:29:00,
2013-12-07 05:35:00,6.7,-0.7,30.77,NE,40,8.0,11.0,71,0.00,,,0.00,Wunderground v.1.15,2013-12-07 11:35:00,
2013-12-07 05:42:00,6.6,-0.8,30.78,NE,39,8.0,10.0,71,0.00,,,0.00,Wunderground v.1.15,2013-12-07 11:42:00,
2013-12-07 05:47:00,6.6,-0.8,30.77,NE,42,8.0,11.0,71,0.00,,,0.00,Wunderground v.1.15,2013-12-07 11:47:00,
2013-12-07 05:53:00,6.5,-0.9,30.78,NE,38,8.0,10.0,71,0.00,,,0.00,Wunderground v.1.15,2013-12-07 11:53:00,
2013-12-07 05:59:00,6.5,-0.9,30.78,NE,48,8.0,11.0,71,0.00,,,0.00,Wunderground v.1.15,2013-12-07 11:59:00,
2013-12-07 06:04:00,6.5,-0.6,30.78,NE,46,8.0,11.0,72,0.00,,,0.00,Wunderground v.1.15,2013-12-07 12:04:00,
2013-12-07 06:09:00,6.5,-0.6,30.78,NE,46,8.0,11.0,72,0.00,,,0.00,Wunderground v.1.15,2013-12-07 12:09:00,
2013-12-07 06:15:00,6.4,-0.7,30.78,NE,47,8.0,10.0,72,0.00,,,0.00,Wunderground v.1.15,2013-12-07 12:15:00,
2013-12-07 06:21:00,6.3,-0.8,30.78,NE,43,7.0,9.0,72,0.00,,,0.00,Wunderground v.1.15,2013-12-07 12:21:00,
2013-12-07 06:27:00,6.3,-0.5,30.78,NE,44,7.0,9.0,73,0.00,,,0.00,Wunderground v.1.15,2013-12-07 12:27:00,
2013-12-07 06:33:00,6.2,-0.6,30.78,NE,40,7.0,10.0,73,0.00,,,0.00,Wunderground v.1.15,2013-12-07 12:33:00,
2013-12-07 06:39:00,6.2,-0.6,30.78,NE,36,8.0,11.0,73,0.00,,,0.00,Wunderground v.1.15,2013-12-07 12:39:00,
2013-12-07 06:45:00,6.1,-0.7,30.78,NE,37,9.0,11.0,73,0.00,,,0.00,Wunderground v.1.15,2013-12-07 12:45:00,
2013-12-07 06:51:00,6.1,-0.7,30.78,NE,49,9.0,9.0,73,0.00,,,0.00,Wunderground v.1.15,2013-12-07 12:51:00,
2013-12-07 06:57:00,6.1,-0.7,30.78,NE,34,9.0,12.0,73,0.00,,,0.00,Wunderground v.1.15,2013-12-07 12:57:00,
2013-12-07 07:02:00,6.1,-0.7,30.78,NE,34,9.0,13.0,73,0.00,,,0.00,Wunderground v.1.15,2013-12-07 13:02:00,
2013-12-07 07:07:00,6.0,-0.8,30.78,NNE,28,9.0,13.0,73,0.00,,,0.00,Wunderground v.1.15,2013-12-07 13:07:00,
2013-12-07 07:13:00,5.9,-0.9,30.78,NE,40,9.0,11.0,73,0.00,,,0.00,Wunderground v.1.15,2013-12-07 13:13:00,
2013-12-07 07:19:00,5.9,-0.9,30.78,NE,38,9.0,11.0,73,0.00,,,0.00,Wunderground v.1.15,2013-12-07 13:19:00,
2013-12-07 07:25:00,5.8,-0.7,30.79,NE,34,8.0,10.0,74,0.00,,,0.00,Wunderground v.1.15,2013-12-07 13:25:00,
2013-12-07 07:31:00,5.7,-1.1,30.79,NE,34,6.0,6.0,73,0.00,,,0.00,Wunderground v.1.15,2013-12-07 13:31:00,
2013-12-07 07:37:00,5.7,-0.8,30.79,NE,39,7.0,10.0,74,0.00,,,0.00,Wunderground v.1.15,2013-12-07 13:37:00,
2013-12-07 07:43:00,5.8,-0.7,30.79,NE,38,8.0,11.0,74,0.00,,,0.00,Wunderground v.1.15,2013-12-07 13:43:00,
2013-12-07 07:49:00,5.8,-0.7,30.79,NE,39,7.0,11.0,74,0.00,,,0.00,Wunderground v.1.15,2013-12-07 13:49:00,
2013-12-07 07:55:00,6.0,-0.5,30.79,NE,46,7.0,11.0,74,0.00,,,0.00,Wunderground v.1.15,2013-12-07 13:55:00,
2013-12-07 08:02:00,6.1,-0.4,30.79,NE,40,8.0,13.0,74,0.00,,,0.00,Wunderground v.1.15,2013-12-07 14:02:00,
2013-12-07 08:07:00,6.2,-0.3,30.79,NE,50,9.0,13.0,74,0.00,,,0.00,Wunderground v.1.15,2013-12-07 14:07:00,
2013-12-07 08:12:00,6.4,-0.1,30.79,NE,46,9.0,13.0,74,0.00,,,0.00,Wunderground v.1.15,2013-12-07 14:12:00,
2013-12-07 08:18:00,6.5,0.0,30.79,NE,45,9.0,13.0,74,0.00,,,0.00,Wunderground v.1.15,2013-12-07 14:18:00,
2013-12-07 08:24:00,6.8,0.0,30.78,NE,40,10.0,14.0,73,0.00,,,0.00,Wunderground v.1.15,2013-12-07 14:24:00,
2013-12-07 08:30:00,7.2,0.4,30.79,NE,36,9.0,10.0,73,0.00,,,0.00,Wunderground v.1.15,2013-12-07 14:30:00,
2013-12-07 08:35:00,7.4,0.6,30.79,NE,49,9.0,11.0,73,0.00,,,0.00,Wunderground v.1.15,2013-12-07 14:35:00,
2013-12-07 08:40:00,7.7,0.8,30.79,NE,53,9.0,10.0,73,0.00,,,0.00,Wunderground v.1.15,2013-12-07 14:40:00,
2013-12-07 08:45:00,8.0,0.8,30.79,NE,43,10.0,13.0,72,0.00,,,0.00,Wunderground v.1.15,2013-12-07 14:45:00,
2013-12-07 08:51:00,8.2,0.7,30.79,NE,49,10.0,16.0,71,0.00,,,0.00,Wunderground v.1.15,2013-12-07 14:51:00,
2013-12-07 08:57:00,8.5,1.0,30.78,NE,53,11.0,16.0,71,0.00,,,0.00,Wunderground v.1.15,2013-12-07 14:57:00,
2013-12-07 09:02:00,8.8,1.3,30.78,NE,40,11.0,13.0,71,0.00,,,0.00,Wunderground v.1.15,2013-12-07 15:02:00,
2013-12-07 09:08:00,9.0,1.2,30.79,NE,49,11.0,14.0,70,0.00,,,0.00,Wunderground v.1.15,2013-12-07 15:08:00,
2013-12-07 09:14:00,9.4,1.6,30.79,NE,40,10.0,15.0,70,0.00,,,0.00,Wunderground v.1.15,2013-12-07 15:14:00,
2013-12-07 09:19:00,9.6,1.2,30.79,NE,49,10.0,15.0,68,0.00,,,0.00,Wunderground v.1.15,2013-12-07 15:19:00,
2013-12-07 09:25:00,9.9,1.4,30.79,NE,55,10.0,14.0,68,0.00,,,0.00,Wunderground v.1.15,2013-12-07 15:25:00,
2013-12-07 09:31:00,10.3,1.8,30.79,ENE,69,10.0,14.0,68,0.00,,,0.00,Wunderground v.1.15,2013-12-07 15:31:00,
2013-12-07 09:37:00,10.6,2.1,30.79,NE,47,10.0,14.0,68,0.00,,,0.00,Wunderground v.1.15,2013-12-07 15:37:00,
2013-12-07 09:43:00,10.8,2.0,30.79,ENE,62,9.0,12.0,67,0.00,,,0.00,Wunderground v.1.15,2013-12-07 15:43:00,
2013-12-07 09:48:00,11.3,2.5,30.79,ENE,57,9.0,14.0,67,0.00,,,0.00,Wunderground v.1.15,2013-12-07 15:48:00,
2013-12-07 09:53:00,11.3,2.1,30.79,ENE,78,10.0,13.0,66,0.00,,,0.00,Wunderground v.1.15,2013-12-07 15:53:00,
2013-12-07 09:59:00,11.6,2.1,30.80,East,81,9.0,13.0,65,0.00,,,0.00,Wunderground v.1.15,2013-12-07 15:59:00,
2013-12-07 10:05:00,11.9,2.4,30.80,ENE,69,9.0,11.0,65,0.00,,,0.00,Wunderground v.1.15,2013-12-07 16:05:00,
2013-12-07 10:11:00,12.1,2.6,30.80,ENE,69,9.0,11.0,65,0.00,,,0.00,Wunderground v.1.15,2013-12-07 16:11:00,
2013-12-07 10:16:00,12.2,2.3,30.80,ENE,67,9.0,12.0,64,0.00,,,0.00,Wunderground v.1.15,2013-12-07 16:16:00,
2013-12-07 10:21:00,12.6,2.7,30.79,NE,51,9.0,12.0,64,0.00,,,0.00,Wunderground v.1.15,2013-12-07 16:21:00,
2013-12-07 10:28:00,13.2,3.3,30.79,East,79,8.0,13.0,64,0.00,,,0.00,Wunderground v.1.15,2013-12-07 16:28:00,
2013-12-07 10:34:00,13.3,3.0,30.78,ENE,77,8.0,11.0,63,0.00,,,0.00,Wunderground v.1.15,2013-12-07 16:34:00,
2013-12-07 10:40:00,13.7,3.4,30.78,ENE,66,8.0,8.0,63,0.00,,,0.00,Wunderground v.1.15,2013-12-07 16:40:00,
2013-12-07 10:45:00,14.0,3.0,30.78,ENE,57,8.0,13.0,61,0.00,,,0.00,Wunderground v.1.15,2013-12-07 16:45:00,
2013-12-07 10:51:00,14.2,3.2,30.78,ENE,66,9.0,12.0,61,0.00,,,0.00,Wunderground v.1.15,2013-12-07 16:51:00,
2013-12-07 10:57:00,14.4,3.4,30.77,ENE,78,9.0,13.0,61,0.00,,,0.00,Wunderground v.1.15,2013-12-07 16:57:00,
2013-12-07 11:02:00,14.5,3.1,30.77,ENE,71,9.0,10.0,60,0.00,,,0.00,Wunderground v.1.15,2013-12-07 17:02:00,
2013-12-07 11:07:00,14.8,3.4,30.77,East,99,7.0,11.0,60,0.00,,,0.00,Wunderground v.1.15,2013-12-07 17:07:00,
2013-12-07 11:13:00,15.4,4.0,30.77,ENE,76,6.0,14.0,60,0.00,,,0.00,Wunderground v.1.15,2013-12-07 17:13:00,
2013-12-07 11:19:00,15.6,3.8,30.77,East,99,7.0,14.0,59,0.00,,,0.00,Wunderground v.1.15,2013-12-07 17:19:00,
2013-12-07 11:25:00,15.6,3.4,30.76,ESE,115,8.0,13.0,58,0.00,,,0.00,Wunderground v.1.15,2013-12-07 17:25:00,
2013-12-07 11:30:00,15.8,2.9,30.76,ESE,122,9.0,13.0,56,0.00,,,0.00,Wunderground v.1.15,2013-12-07 17:30:00,
2013-12-07 11:35:00,15.8,3.2,30.76,East,79,8.0,13.0,57,0.00,,,0.00,Wunderground v.1.15,2013-12-07 17:35:00,
2013-12-07 11:41:00,16.2,4.0,30.75,East,79,8.0,13.0,58,0.00,,,0.00,Wunderground v.1.15,2013-12-07 17:41:00,
2013-12-07 11:47:00,16.8,4.2,30.74,ENE,64,10.0,14.0,57,0.00,,,0.00,Wunderground v.1.15,2013-12-07 17:47:00,
2013-12-07 11:53:00,17.1,4.1,30.74,East,100,9.0,14.0,56,0.00,,,0.00,Wunderground v.1.15,2013-12-07 17:53:00,
2013-12-07 11:59:00,17.6,4.5,30.73,ESE,109,9.0,14.0,56,0.00,,,0.00,Wunderground v.1.15,2013-12-07 17:59:00,
2013-12-07 12:05:00,17.8,4.3,30.73,East,87,9.0,13.0,55,0.00,,,0.00,Wunderground v.1.15,2013-12-07 18:05:00,
2013-12-07 12:11:00,18.1,4.2,30.72,ESE,103,8.0,11.0,54,0.00,,,0.00,Wunderground v.1.15,2013-12-07 18:11:00,
2013-12-07 12:17:00,18.3,4.0,30.72,ENE,65,9.0,15.0,53,0.00,,,0.00,Wunderground v.1.15,2013-12-07 18:17:00,
2013-12-07 12:22:00,18.4,3.7,30.71,NE,50,10.0,13.0,52,0.00,,,0.00,Wunderground v.1.15,2013-12-07 18:22:00,
2013-12-07 12:27:00,18.4,3.7,30.71,ENE,70,9.0,13.0,52,0.00,,,0.00,Wunderground v.1.15,2013-12-07 18:27:00,
2013-12-07 12:33:00,19.0,3.8,30.70,ENE,71,7.0,13.0,51,0.00,,,0.00,Wunderground v.1.15,2013-12-07 18:33:00,
2013-12-07 12:38:00,19.4,3.8,30.70,East,82,9.0,14.0,50,0.00,,,0.00,Wunderground v.1.15,2013-12-07 18:38:00,
2013-12-07 12:44:00,19.5,3.4,30.68,ENE,75,9.0,11.0,49,0.00,,,0.00,Wunderground v.1.15,2013-12-07 18:44:00,
2013-12-07 12:49:00,19.6,3.1,30.67,ENE,70,10.0,17.0,48,0.00,,,0.00,Wunderground v.1.15,2013-12-07 18:49:00,
2013-12-07 12:55:00,19.7,3.2,30.67,ENE,67,11.0,15.0,48,0.00,,,0.00,Wunderground v.1.15,2013-12-07 18:55:00,
2013-12-07 13:01:00,20.0,3.4,30.66,East,82,11.0,14.0,48,0.00,,,0.00,Wunderground v.1.15,2013-12-07 19:01:00,
2013-12-07 13:07:00,20.3,4.2,30.65,East,98,11.0,14.0,49,0.00,,,0.00,Wunderground v.1.15,2013-12-07 19:07:00,
2013-12-07 13:12:00,20.6,3.5,30.64,ENE,78,10.0,16.0,47,0.00,,,0.00,Wunderground v.1.15,2013-12-07 19:12:00,
2013-12-07 13:17:00,20.9,4.3,30.64,East,89,12.0,22.0,48,0.00,,,0.00,Wunderground v.1.15,2013-12-07 19:17:00,
2013-12-07 13:23:00,20.9,3.8,30.63,East,80,12.0,18.0,47,0.00,,,0.00,Wunderground v.1.15,2013-12-07 19:23:00,
2013-12-07 13:28:00,21.4,4.7,30.63,ENE,63,11.0,18.0,48,0.00,,,0.00,Wunderground v.1.15,2013-12-07 19:28:00,
2013-12-07 13:33:00,21.3,3.7,30.63,East,94,10.0,13.0,46,0.00,,,0.00,Wunderground v.1.15,2013-12-07 19:33:00,
2013-12-07 13:39:00,21.9,4.3,30.62,ESE,117,9.0,16.0,46,0.00,,,0.00,Wunderground v.1.15,2013-12-07 19:39:00,
2013-12-07 13:44:00,21.9,3.8,30.63,SE,126,9.0,12.0,45,0.00,,,0.00,Wunderground v.1.15,2013-12-07 19:44:00,
2013-12-07 13:50:00,22.0,3.4,30.62,East,97,8.0,15.0,44,0.00,,,0.00,Wunderground v.1.15,2013-12-07 19:50:00,
2013-12-07 13:56:00,21.8,3.7,30.62,East,88,10.0,16.0,45,0.00,,,0.00,Wunderground v.1.15,2013-12-07 19:56:00,
2013-12-07 14:02:00,21.9,3.8,30.61,East,84,8.0,9.0,45,0.00,,,0.00,Wunderground v.1.15,2013-12-07 20:02:00,
2013-12-07 14:08:00,22.0,3.4,30.60,East,81,9.0,17.0,44,0.00,,,0.00,Wunderground v.1.15,2013-12-07 20:08:00,
2013-12-07 14:14:00,21.7,3.6,30.59,ENE,76,10.0,13.0,45,0.00,,,0.00,Wunderground v.1.15,2013-12-07 20:14:00,
2013-12-07 14:20:00,21.7,3.1,30.58,ESE,111,9.0,11.0,44,0.00,,,0.00,Wunderground v.1.15,2013-12-07 20:20:00,
2013-12-07 14:26:00,21.9,3.3,30.58,ENE,78,11.0,15.0,44,0.00,,,0.00,Wunderground v.1.15,2013-12-07 20:26:00,
2013-12-07 14:32:00,21.8,3.2,30.58,East,84,11.0,14.0,44,0.00,,,0.00,Wunderground v.1.15,2013-12-07 20:32:00,
2013-12-07 14:38:00,21.9,3.3,30.58,ESE,106,12.0,17.0,44,0.00,,,0.00,Wunderground v.1.15,2013-12-07 20:38:00,
2013-12-07 14:43:00,21.8,3.2,30.58,East,92,12.0,18.0,44,0.00,,,0.00,Wunderground v.1.15,2013-12-07 20:43:00,
2013-12-07 14:48:00,21.7,3.1,30.57,ESE,105,12.0,18.0,44,0.00,,,0.00,Wunderground v.1.15,2013-12-07 20:48:00,
2013-12-07 14:54:00,21.9,3.3,30.57,East,83,11.0,17.0,44,0.00,,,0.00,Wunderground v.1.15,2013-12-07 20:54:00,
2013-12-07 15:00:00,22.0,3.9,30.56,ENE,71,11.0,13.0,45,0.00,,,0.00,Wunderground v.1.15,2013-12-07 21:00:00,
2013-12-07 15:06:00,21.9,2.8,30.56,East,86,12.0,19.0,43,0.00,,,0.00,Wunderground v.1.15,2013-12-07 21:06:00,
2013-12-07 15:11:00,21.9,3.3,30.56,East,86,12.0,16.0,44,0.00,,,0.00,Wunderground v.1.15,2013-12-07 21:11:00,
2013-12-07 15:16:00,21.8,2.7,30.56,East,84,12.0,17.0,43,0.00,,,0.00,Wunderground v.1.15,2013-12-07 21:16:00,
2013-12-07 15:21:00,21.7,3.1,30.57,East,82,12.0,15.0,44,0.00,,,0.00,Wunderground v.1.15,2013-12-07 21:21:00,
2013-12-07 15:27:00,21.9,2.8,30.57,East,88,10.0,15.0,43,0.00,,,0.00,Wunderground v.1.15,2013-12-07 21:27:00,
2013-12-07 15:33:00,22.0,2.9,30.57,East,101,9.0,14.0,43,0.00,,,0.00,Wunderground v.1.15,2013-12-07 21:33:00,
2013-12-07 15:39:00,21.9,3.3,30.57,ENE,78,9.0,14.0,44,0.00,,,0.00,Wunderground v.1.15,2013-12-07 21:39:00,
2013-12-07 15:44:00,21.9,3.3,30.57,East,92,9.0,13.0,44,0.00,,,0.00,Wunderground v.1.15,2013-12-07 21:44:00,
2013-12-07 15:49:00,21.8,3.2,30.57,East,92,10.0,15.0,44,0.00,,,0.00,Wunderground v.1.15,2013-12-07 21:49:00,
2013-12-07 15:54:00,21.7,3.6,30.57,East,100,10.0,16.0,45,0.00,,,0.00,Wunderground v.1.15,2013-12-07 21:54:00,
2013-12-07 15:59:00,21.7,3.6,30.57,East,80,9.0,16.0,45,0.00,,,0.00,Wunderground v.1.15,2013-12-07 21:59:00,
2013-12-07 16:05:00,21.7,4.1,30.57,East,92,8.0,13.0,46,0.00,,,0.00,Wunderground v.1.15,2013-12-07 22:05:00,
2013-12-07 16:10:00,21.8,4.2,30.57,East,100,9.0,9.0,46,0.00,,,0.00,Wunderground v.1.15,2013-12-07 22:10:00,
2013-12-07 16:15:00,21.8,4.2,30.57,ESE,116,8.0,10.0,46,0.00,,,0.00,Wunderground v.1.15,2013-12-07 22:15:00,
2013-12-07 16:20:00,21.8,4.2,30.57,East,84,7.0,9.0,46,0.00,,,0.00,Wunderground v.1.15,2013-12-07 22:20:00,
2013-12-07 16:26:00,21.9,4.7,30.57,East,90,7.0,9.0,47,0.00,,,0.00,Wunderground v.1.15,2013-12-07 22:26:00,
2013-12-07 16:31:00,21.9,4.3,30.58,ESE,121,7.0,8.0,46,0.00,,,0.00,Wunderground v.1.15,2013-12-07 22:31:00,
2013-12-07 16:36:00,21.9,3.8,30.57,ESE,102,7.0,11.0,45,0.00,,,0.00,Wunderground v.1.15,2013-12-07 22:36:00,
2013-12-07 16:42:00,21.8,4.6,30.57,East,79,8.0,13.0,47,0.00,,,0.00,Wunderground v.1.15,2013-12-07 22:42:00,
2013-12-07 16:48:00,21.8,4.2,30.57,East,94,9.0,13.0,46,0.00,,,0.00,Wunderground v.1.15,2013-12-07 22:48:00,
2013-12-07 16:54:00,21.7,4.1,30.56,ESE,120,8.0,11.0,46,0.00,,,0.00,Wunderground v.1.15,2013-12-07 22:54:00,
2013-12-07 16:59:00,21.7,3.6,30.56,SE,128,8.0,12.0,45,0.00,,,0.00,Wunderground v.1.15,2013-12-07 22:59:00,
2013-12-07 17:04:00,21.6,4.0,30.56,ESE,106,8.0,10.0,46,0.00,,,0.00,Wunderground v.1.15,2013-12-07 23:04:00,
2013-12-07 17:10:00,21.6,4.0,30.56,East,93,7.0,9.0,46,0.00,,,0.00,Wunderground v.1.15,2013-12-07 23:10:00,
2013-12-07 17:16:00,21.5,3.9,30.56,ESE,113,8.0,13.0,46,0.00,,,0.00,Wunderground v.1.15,2013-12-07 23:16:00,
2013-12-07 17:21:00,21.5,3.9,30.56,ESE,104,8.0,11.0,46,0.00,,,0.00,Wunderground v.1.15,2013-12-07 23:21:00,
2013-12-07 17:27:00,21.4,4.3,30.56,ESE,108,9.0,12.0,47,0.00,,,0.00,Wunderground v.1.15,2013-12-07 23:27:00,
2013-12-07 17:32:00,21.4,4.3,30.55,ESE,110,8.0,11.0,47,0.00,,,0.00,Wunderground v.1.15,2013-12-07 23:32:00,
2013-12-07 17:38:00,21.4,4.7,30.55,ESE,113,8.0,12.0,48,0.00,,,0.00,Wunderground v.1.15,2013-12-07 23:38:00,
2013-12-07 17:44:00,21.4,4.7,30.54,ESE,104,9.0,11.0,48,0.00,,,0.00,Wunderground v.1.15,2013-12-07 23:44:00,
2013-12-07 17:49:00,21.4,4.7,30.54,East,92,8.0,11.0,48,0.00,,,0.00,Wunderground v.1.15,2013-12-07 23:49:00,
2013-12-07 17:54:00,21.4,4.7,30.54,East,98,8.0,11.0,48,0.00,,,0.00,Wunderground v.1.15,2013-12-07 23:54:00,
2013-12-07 18:00:00,21.5,4.8,30.54,East,90,8.0,10.0,48,0.00,,,0.00,Wunderground v.1.15,2013-12-08 00:00:00,
2013-12-07 18:05:00,21.5,5.3,30.53,East,100,8.0,13.0,49,0.00,,,0.00,Wunderground v.1.15,2013-12-08 00:05:00,
2013-12-07 18:11:00,21.5,5.3,30.53,East,91,8.0,9.0,49,0.00,,,0.00,Wunderground v.1.15,2013-12-08 00:11:00,
2013-12-07 18:17:00,21.6,5.4,30.53,ESE,104,8.0,11.0,49,0.00,,,0.00,Wunderground v.1.15,2013-12-08 00:17:00,
2013-12-07 18:22:00,21.6,4.9,30.53,East,98,8.0,12.0,48,0.00,,,0.00,Wunderground v.1.15,2013-12-08 00:22:00,
2013-12-07 18:27:00,21.6,4.9,30.53,ESE,103,8.0,12.0,48,0.00,,,0.00,Wunderground v.1.15,2013-12-08 00:27:00,
2013-12-07 18:32:00,21.6,4.4,30.52,ESE,108,9.0,12.0,47,0.00,,,0.00,Wunderground v.1.15,2013-12-08 00:32:00,
2013-12-07 18:38:00,21.5,4.4,30.52,ESE,112,11.0,15.0,47,0.00,,,0.00,Wunderground v.1.15,2013-12-08 00:38:00,
2013-12-07 18:44:00,21.6,5.4,30.51,ESE,111,10.0,14.0,49,0.00,,,0.00,Wunderground v.1.15,2013-12-08 00:44:00,
2013-12-07 18:49:00,21.6,5.4,30.51,East,94,10.0,15.0,49,0.00,,,0.00,Wunderground v.1.15,2013-12-08 00:49:00,
2013-12-07 18:55:00,21.5,5.3,30.50,East,96,11.0,16.0,49,0.00,,,0.00,Wunderground v.1.15,2013-12-08 00:55:00,
2013-12-07 19:00:00,21.5,5.3,30.49,East,90,11.0,11.0,49,0.00,,,0.00,Wunderground v.1.15,2013-12-08 01:00:00,
2013-12-07 19:05:00,21.5,5.3,30.49,East,96,13.0,18.0,49,0.00,,,0.00,Wunderground v.1.15,2013-12-08 01:05:00,
2013-12-07 19:11:00,21.3,5.1,30.49,East,89,13.0,13.0,49,0.00,,,0.00,Wunderground v.1.15,2013-12-08 01:11:00,
2013-12-07 19:17:00,21.3,5.1,30.49,ESE,109,12.0,16.0,49,0.00,,,0.00,Wunderground v.1.15,2013-12-08 01:17:00,
2013-12-07 19:22:00,21.3,5.1,30.49,East,96,11.0,17.0,49,0.00,,,0.00,Wunderground v.1.15,2013-12-08 01:22:00,
2013-12-07 19:28:00,21.2,5.0,30.48,East,97,12.0,17.0,49,0.00,,,0.00,Wunderground v.1.15,2013-12-08 01:28:00,
2013-12-07 19:34:00,21.3,5.5,30.48,ESE,107,10.0,14.0,50,0.00,,,0.00,Wunderground v.1.15,2013-12-08 01:34:00,
2013-12-07 19:39:00,21.1,4.9,30.48,East,95,11.0,17.0,49,0.00,,,0.00,Wunderground v.1.15,2013-12-08 01:39:00,
2013-12-07 19:45:00,21.1,4.9,30.47,East,101,11.0,17.0,49,0.00,,,0.00,Wunderground v.1.15,2013-12-08 01:45:00,
2013-12-07 19:50:00,21.0,4.8,30.47,East,82,12.0,12.0,49,0.00,,,0.00,Wunderground v.1.15,2013-12-08 01:50:00,
2013-12-07 19:55:00,20.9,4.3,30.47,ESE,112,13.0,18.0,48,0.00,,,0.00,Wunderground v.1.15,2013-12-08 01:55:00,
2013-12-07 20:01:00,20.8,4.2,30.47,ESE,109,13.0,17.0,48,0.00,,,0.00,Wunderground v.1.15,2013-12-08 02:01:00,
2013-12-07 20:07:00,20.8,4.6,30.47,East,96,13.0,17.0,49,0.00,,,0.00,Wunderground v.1.15,2013-12-08 02:07:00,
2013-12-07 20:13:00,20.8,4.6,30.47,SE,125,11.0,14.0,49,0.00,,,0.00,Wunderground v.1.15,2013-12-08 02:13:00,
2013-12-07 20:19:00,20.8,4.6,30.47,ESE,115,10.0,17.0,49,0.00,,,0.00,Wunderground v.1.15,2013-12-08 02:19:00,
2013-12-07 20:25:00,20.8,5.1,30.47,SE,130,10.0,14.0,50,0.00,,,0.00,Wunderground v.1.15,2013-12-08 02:25:00,
2013-12-07 20:30:00,20.8,5.1,30.46,East,97,10.0,14.0,50,0.00,,,0.00,Wunderground v.1.15,2013-12-08 02:30:00,
2013-12-07 20:36:00,20.7,5.0,30.46,ESE,117,12.0,19.0,50,0.00,,,0.00,Wunderground v.1.15,2013-12-08 02:36:00,
2013-12-07 20:42:00,20.6,5.3,30.45,East,97,13.0,16.0,51,0.00,,,0.00,Wunderground v.1.15,2013-12-08 02:42:00,
2013-12-07 20:47:00,20.6,4.9,30.45,ESE,109,12.0,17.0,50,0.00,,,0.00,Wunderground v.1.15,2013-12-08 02:47:00,
2013-12-07 20:52:00,20.5,4.8,30.45,ESE,106,12.0,14.0,50,0.00,,,0.00,Wunderground v.1.15,2013-12-08 02:52:00,
2013-12-07 20:58:00,20.5,5.2,30.45,East,98,11.0,14.0,51,0.00,,,0.00,Wunderground v.1.15,2013-12-08 02:58:00,
2013-12-07 21:04:00,20.5,5.2,30.45,ESE,115,10.0,15.0,51,0.00,,,0.00,Wunderground v.1.15,2013-12-08 03:04:00,
2013-12-07 21:09:00,20.4,5.1,30.45,East,96,11.0,16.0,51,0.00,,,0.00,Wunderground v.1.15,2013-12-08 03:09:00,
2013-12-07 21:15:00,20.4,5.1,30.45,SSE,153,10.0,15.0,51,0.00,,,0.00,Wunderground v.1.15,2013-12-08 03:15:00,
2013-12-07 21:20:00,20.4,5.1,30.45,ESE,119,10.0,10.0,51,0.00,,,0.00,Wunderground v.1.15,2013-12-08 03:20:00,
2013-12-07 21:26:00,20.3,5.5,30.44,ESE,110,11.0,17.0,52,0.00,,,0.00,Wunderground v.1.15,2013-12-08 03:26:00,
2013-12-07 21:31:00,20.3,5.5,30.44,SE,124,11.0,11.0,52,0.00,,,0.00,Wunderground v.1.15,2013-12-08 03:31:00,
2013-12-07 21:37:00,20.3,5.5,30.45,SE,130,10.0,15.0,52,0.00,,,0.00,Wunderground v.1.15,2013-12-08 03:37:00,
2013-12-07 21:43:00,20.2,5.4,30.45,ESE,106,11.0,15.0,52,0.00,,,0.00,Wunderground v.1.15,2013-12-08 03:43:00,
2013-12-07 21:49:00,20.2,5.8,30.45,SE,134,10.0,15.0,53,0.00,,,0.00,Wunderground v.1.15,2013-12-08 03:49:00,
2013-12-07 21:54:00,20.2,5.8,30.45,ESE,110,10.0,13.0,53,0.00,,,0.00,Wunderground v.1.15,2013-12-08 03:54:00,
2013-12-07 22:00:00,20.2,6.2,30.46,SE,132,9.0,11.0,54,0.00,,,0.00,Wunderground v.1.15,2013-12-08 04:00:00,
2013-12-07 22:06:00,20.2,6.2,30.45,SE,128,9.0,12.0,54,0.00,,,0.00,Wunderground v.1.15,2013-12-08 04:06:00,
2013-12-07 22:11:00,20.2,6.2,30.45,SE,127,8.0,13.0,54,0.00,,,0.00,Wunderground v.1.15,2013-12-08 04:11:00,
2013-12-07 22:16:00,20.1,6.1,30.44,ESE,121,9.0,14.0,54,0.00,,,0.00,Wunderground v.1.15,2013-12-08 04:16:00,
2013-12-07 22:22:00,20.0,6.4,30.44,ESE,117,10.0,12.0,55,0.00,,,0.00,Wunderground v.1.15,2013-12-08 04:22:00,
2013-12-07 22:28:00,20.0,6.8,30.43,SE,132,9.0,12.0,56,0.00,,,0.00,Wunderground v.1.15,2013-12-08 04:28:00,
2013-12-07 22:33:00,20.0,6.8,30.43,ESE,111,9.0,13.0,56,0.00,,,0.00,Wunderground v.1.15,2013-12-08 04:33:00,
2013-12-07 22:38:00,20.0,6.8,30.43,SE,134,8.0,13.0,56,0.00,,,0.00,Wunderground v.1.15,2013-12-08 04:38:00,
2013-12-07 22:44:00,20.0,6.8,30.44,SE,137,9.0,14.0,56,0.00,,,0.00,Wunderground v.1.15,2013-12-08 04:44:00,
2013-12-07 22:50:00,19.9,6.7,30.44,SE,134,9.0,13.0,56,0.00,,,0.00,Wunderground v.1.15,2013-12-08 04:50:00,
2013-12-07 22:57:00,19.9,7.1,30.43,SE,134,10.0,14.0,57,0.00,,,0.00,Wunderground v.1.15,2013-12-08 04:57:00,
2013-12-07 23:01:00,19.9,7.1,30.43,ESE,121,10.0,13.0,57,0.00,,,0.00,Wunderground v.1.15,2013-12-08 05:01:00,
2013-12-07 23:03:00,19.9,7.1,30.43,SE,126,10.0,13.0,57,0.00,,,0.00,Wunderground v.1.15,2013-12-08 05:03:00,
2013-12-07 23:04:00,19.9,7.1,30.43,ESE,116,10.0,13.0,57,0.00,,,0.00,Wunderground v.1.15,2013-12-08 05:04:00,
2013-12-07 23:06:00,19.9,7.1,30.42,SE,136,10.0,13.0,57,0.00,,,0.00,Wunderground v.1.15,2013-12-08 05:06:00,
2013-12-07 23:08:00,19.9,7.1,30.43,SE,140,10.0,13.0,57,0.00,,,0.00,Wunderground v.1.15,2013-12-08 05:08:00,
2013-12-07 23:13:00,19.9,7.5,30.42,SE,133,11.0,15.0,58,0.00,,,0.00,Wunderground v.1.15,2013-12-08 05:13:00,
2013-12-07 23:16:00,19.9,7.5,30.42,ESE,123,11.0,15.0,58,0.00,,,0.00,Wunderground v.1.15,2013-12-08 05:16:00,
2013-12-07 23:22:00,19.9,7.5,30.41,SE,130,11.0,15.0,58,0.00,,,0.00,Wunderground v.1.15,2013-12-08 05:22:00,
2013-12-07 23:28:00,19.9,7.9,30.41,SE,137,12.0,15.0,59,0.00,,,0.00,Wunderground v.1.15,2013-12-08 05:28:00,
2013-12-07 23:34:00,19.9,7.9,30.41,SE,126,11.0,15.0,59,0.00,,,0.00,Wunderground v.1.15,2013-12-08 05:34:00,
2013-12-07 23:40:00,19.9,7.9,30.40,SE,142,11.0,14.0,59,0.00,,,0.00,Wunderground v.1.15,2013-12-08 05:40:00,
2013-12-07 23:45:00,19.9,8.2,30.40,SE,131,12.0,16.0,60,0.00,,,0.00,Wunderground v.1.15,2013-12-08 05:45:00,
2013-12-07 23:51:00,19.9,8.2,30.40,SE,135,12.0,12.0,60,0.00,,,0.00,Wunderground v.1.15,2013-12-08 05:51:00,
2013-12-07 23:57:00,19.9,8.2,30.40,SE,131,9.0,12.0,60,0.00,,,0.00,Wunderground v.1.15,2013-12-08 05:57:00,